Home   Weather   Dharmapuri   Past weeks

Flag for India Past Weather in Dharmapuri, Tamil Nadu, India — Yesterday and Last 2 Weeks

Now
82 °F

Passing clouds.


Feels Like: 82 °F
Forecast: 75 / 98 °F
Wind: No wind

Location: Bangalore / Hindustan

Current Time: Apr 27, 2017 at 1:15:54 am

Latest Report: Apr 27, 2017 at 12:30 am


Visibility: 4 mi

Pressure: 29.98 "Hg

Humidity: 42%

Dew Point: 57 °F

Location of DharmapuriLocation

Past Weather in Dharmapuri — Graph

°F

Dharmapuri Temperature Yesterday

Maximum temperature yesterday: 95 °F (at 2:00 pm)
Minimum temperature yesterday: 72 °F (at 6:30 am)
Average temperature yesterday: 86 °F

High & Low Weather Summary for the Past Weeks

 TemperatureHumidityPressure
High97 °F (Apr 12, 3:00 pm)94% (Apr 23, 5:30 am)30.04 "Hg (Apr 23, 5:30 am)
Low72 °F (Apr 14, 6:30 am)14% (Apr 13, 4:30 pm)29.77 "Hg (Apr 15, 4:30 pm)
Average85 °F51%29.92 "Hg
* Reported Apr 11 11:30 pm — Apr 26 11:30 pm, Dharmapuri, Weather by CustomWeather, © 2017

Note: Actual official high and low records may vary slightly from our data, if they occured in-between our weather recording intervals... More about our weather records

Advertising

Dharmapuri Weather History for the Previous 24 Hours

Scroll right to see more
 ConditionsComfort  
Time TempWeatherWind HumidityBarometerVisibility
11:30 pm
Wed, Apr 26
82 °FPassing clouds.No windN/A29.98 "Hg4 mi
10:30 pm84 °FPassing clouds.No wind37%29.98 "Hg4 mi
9:30 pm84 °FPassing clouds.No wind45%29.98 "Hg5 mi
8:30 pm86 °FPassing clouds.No wind43%29.95 "Hg5 mi
7:30 pm86 °FClear.No wind33%29.92 "Hg10 mi
6:30 pm90 °FPassing clouds.5 mph29%29.89 "HgN/A
5:30 pm91 °FPassing clouds.8 mph26%29.89 "HgN/A
5:00 pm95 °FPassing clouds.8 mph25%29.89 "HgN/A
4:30 pm95 °FScattered clouds.6 mph25%29.89 "HgN/A
4:00 pm95 °FScattered clouds.7 mph28%29.89 "HgN/A
3:30 pm95 °FScattered clouds.7 mph30%29.89 "HgN/A
3:00 pm95 °FScattered clouds.7 mph28%29.89 "HgN/A
2:30 pm95 °FScattered clouds.7 mph30%29.92 "HgN/A
2:00 pm95 °FScattered clouds.7 mph28%29.92 "HgN/A
1:30 pm93 °FPassing clouds.9 mph32%29.92 "HgN/A
1:00 pm93 °FPassing clouds.7 mph32%29.95 "HgN/A
12:30 pm91 °FPassing clouds.7 mph34%29.98 "HgN/A
12:00 pm91 °FSunny.7 mph36%29.98 "Hg10 mi
11:30 am90 °FSunny.7 mph38%29.98 "Hg10 mi
11:00 am88 °FSunny.7 mph43%29.98 "Hg10 mi
10:30 am88 °FSunny.9 mph43%30.01 "Hg10 mi
10:00 am88 °FSunny.9 mph43%30.01 "Hg10 mi
9:30 am84 °FSunny.7 mph48%30.01 "Hg10 mi
9:00 am82 °FClear.6 mph51%30.01 "Hg5 mi
8:30 am79 °FClear.6 mph61%30.01 "Hg5 mi
8:00 am77 °FClear.5 mph65%29.98 "Hg5 mi
7:30 am75 °FClear.5 mph69%29.98 "Hg5 mi
7:00 am73 °FClear.No wind69%29.95 "Hg5 mi
6:30 am72 °FPassing clouds.3 mph73%29.95 "Hg5 mi
6:00 am73 °FPassing clouds.5 mph69%29.92 "Hg5 mi
5:30 am73 °FPassing clouds.3 mph69%29.92 "Hg5 mi
Weather by CustomWeather, © 2017

See weather overviewHow to use our weather pages